Datum;Richtung;Anzahl Messungen;Anzahl Fahrzeuge;Durchschnittsgeschwindigkeit;Höchstgeschwindigkeit
06/07/2020 13:00;1;70;70;35.89;55.00
06/07/2020 13:30;1;100;100;34.06;54.00
06/07/2020 14:00;1;97;97;35.06;53.00
06/07/2020 14:30;1;103;103;34.51;49.00
06/07/2020 15:00;1;99;99;34.36;50.00
06/07/2020 15:30;1;100;100;35.68;57.00
06/07/2020 16:00;1;81;81;34.54;46.00
06/07/2020 16:30;1;90;90;36.57;61.00
06/07/2020 17:00;1;96;96;35.86;52.00
06/07/2020 17:30;1;74;74;37.62;74.00
06/07/2020 18:00;1;62;62;36.74;56.00
06/07/2020 18:30;1;63;63;36.21;67.00
06/07/2020 19:00;1;68;68;36.62;56.00
06/07/2020 19:30;1;39;39;38.59;61.00
06/07/2020 20:00;1;32;32;35.59;45.00
06/07/2020 20:30;1;27;27;35.67;54.00
06/07/2020 21:00;1;26;26;38.42;57.00
06/07/2020 21:30;1;22;22;34.36;51.00
06/07/2020 22:00;1;9;9;42.44;54.00
06/07/2020 22:30;1;5;5;33.60;41.00
06/07/2020 23:00;1;8;8;36.62;46.00
06/07/2020 23:30;1;5;5;31.20;41.00
07/07/2020 00:00;1;1;1;34.00;34.00
07/07/2020 00:30;1;2;2;31.50;34.00
07/07/2020 01:00;1;5;5;29.40;37.00
07/07/2020 01:30;1;1;1;29.00;29.00
07/07/2020 02:00;1;1;1;40.00;40.00
07/07/2020 03:30;1;2;2;37.00;42.00
07/07/2020 04:00;1;3;3;44.00;54.00
07/07/2020 04:30;1;4;4;39.75;43.00
07/07/2020 05:00;1;5;5;38.20;40.00
07/07/2020 05:30;1;34;34;37.09;55.00
07/07/2020 06:00;1;44;44;38.68;57.00
07/07/2020 06:30;1;108;108;37.84;75.00
07/07/2020 07:00;1;114;114;37.26;69.00
07/07/2020 07:30;1;121;121;36.80;58.00
07/07/2020 08:00;1;108;108;35.20;56.00
07/07/2020 08:30;1;101;101;34.87;60.00
07/07/2020 09:00;1;109;109;35.06;59.00
07/07/2020 09:30;1;103;103;34.84;52.00
07/07/2020 10:00;1;115;115;32.47;51.00
07/07/2020 10:30;1;95;95;33.33;50.00
07/07/2020 11:00;1;74;74;34.38;48.00
07/07/2020 11:30;1;122;122;33.66;50.00
07/07/2020 12:00;1;89;89;34.20;51.00
07/07/2020 12:30;1;77;77;35.57;56.00
07/07/2020 13:00;1;108;108;34.46;46.00
07/07/2020 13:30;1;88;88;34.17;50.00
07/07/2020 14:00;1;87;87;35.22;53.00
07/07/2020 14:30;1;106;106;32.39;65.00
07/07/2020 15:00;1;89;89;34.52;53.00
07/07/2020 15:30;1;94;94;33.63;51.00
07/07/2020 16:00;1;76;76;33.24;48.00
07/07/2020 16:30;1;88;88;35.00;50.00
07/07/2020 17:00;1;95;95;36.08;56.00
07/07/2020 17:30;1;84;84;37.38;53.00
07/07/2020 18:00;1;63;63;36.83;76.00
07/07/2020 18:30;1;68;68;37.00;55.00
07/07/2020 19:00;1;56;56;36.84;53.00
07/07/2020 19:30;1;56;56;37.41;53.00
07/07/2020 20:00;1;32;32;37.81;63.00
07/07/2020 20:30;1;29;29;36.31;59.00
07/07/2020 21:00;1;28;28;36.89;53.00
07/07/2020 21:30;1;15;15;35.93;48.00
07/07/2020 22:00;1;10;10;38.10;47.00
07/07/2020 22:30;1;10;10;35.80;46.00
07/07/2020 23:00;1;4;4;40.50;52.00
07/07/2020 23:30;1;5;5;29.60;40.00
08/07/2020 00:00;1;5;5;33.20;47.00
08/07/2020 00:30;1;1;1;20.00;20.00
08/07/2020 01:30;1;1;1;20.00;20.00
08/07/2020 03:00;1;1;1;46.00;46.00
08/07/2020 04:00;1;4;4;45.50;53.00
08/07/2020 04:30;1;2;2;33.50;44.00
08/07/2020 05:00;1;8;8;38.88;51.00
08/07/2020 05:30;1;29;29;37.48;46.00
08/07/2020 06:00;1;46;46;37.37;50.00
08/07/2020 06:30;1;101;101;36.18;53.00
08/07/2020 07:00;1;113;113;36.77;56.00
08/07/2020 07:30;1;92;92;35.14;71.00
08/07/2020 08:00;1;136;136;37.08;59.00
08/07/2020 08:30;1;113;113;35.92;59.00
08/07/2020 09:00;1;85;85;35.09;55.00
08/07/2020 09:30;1;89;89;33.80;51.00
08/07/2020 10:00;1;88;88;33.86;58.00
08/07/2020 10:30;1;109;109;34.17;55.00
08/07/2020 11:00;1;100;100;34.78;53.00
08/07/2020 11:30;1;108;108;35.57;60.00
08/07/2020 12:00;1;77;77;32.60;48.00
08/07/2020 12:30;1;77;77;35.40;53.00
08/07/2020 13:00;1;93;93;35.87;63.00
08/07/2020 13:30;1;97;97;34.18;53.00
08/07/2020 14:00;1;95;95;33.82;52.00
08/07/2020 14:30;1;111;111;34.01;61.00
08/07/2020 15:00;1;112;112;33.48;57.00
08/07/2020 15:30;1;79;79;34.95;51.00
08/07/2020 16:00;1;93;93;34.82;49.00
08/07/2020 16:30;1;94;94;36.10;53.00
08/07/2020 17:00;1;87;87;35.92;58.00
08/07/2020 17:30;1;78;78;35.13;61.00
08/07/2020 18:00;1;75;75;35.51;51.00
08/07/2020 18:30;1;56;56;37.54;50.00
08/07/2020 19:00;1;45;45;40.51;70.00
08/07/2020 19:30;1;42;42;36.95;72.00
08/07/2020 20:00;1;32;32;37.19;59.00
08/07/2020 20:30;1;35;35;34.77;51.00
08/07/2020 21:00;1;28;28;38.50;55.00
08/07/2020 21:30;1;23;23;38.48;62.00
08/07/2020 22:00;1;7;7;40.29;60.00
08/07/2020 22:30;1;9;9;35.33;47.00
08/07/2020 23:00;1;6;6;33.00;43.00
08/07/2020 23:30;1;4;4;31.25;38.00
09/07/2020 00:00;1;2;2;32.50;36.00
09/07/2020 00:30;1;2;2;37.00;40.00
09/07/2020 01:00;1;1;1;39.00;39.00
09/07/2020 01:30;1;2;2;33.50;41.00
09/07/2020 03:00;1;2;2;40.50;55.00
09/07/2020 03:30;1;4;4;42.00;48.00
09/07/2020 04:00;1;4;4;35.25;43.00
09/07/2020 04:30;1;4;4;35.50;43.00
09/07/2020 05:00;1;6;6;38.33;47.00
09/07/2020 05:30;1;32;32;38.44;54.00
09/07/2020 06:00;1;38;38;35.95;50.00
09/07/2020 06:30;1;117;117;36.73;56.00
09/07/2020 07:00;1;113;113;37.26;62.00
09/07/2020 07:30;1;109;109;36.44;60.00
09/07/2020 08:00;1;118;118;36.07;52.00
09/07/2020 08:30;1;98;98;36.36;58.00
09/07/2020 09:00;1;102;102;33.78;56.00
09/07/2020 09:30;1;92;92;34.64;56.00
09/07/2020 10:00;1;119;119;34.54;58.00
09/07/2020 10:30;1;91;91;32.84;47.00
09/07/2020 11:00;1;115;115;33.27;47.00
09/07/2020 11:30;1;98;98;34.29;50.00
09/07/2020 12:00;1;81;81;35.02;53.00
09/07/2020 12:30;1;90;90;35.56;53.00
09/07/2020 13:00;1;98;98;34.41;59.00
09/07/2020 13:30;1;87;87;35.29;52.00
09/07/2020 14:00;1;112;112;33.56;52.00
09/07/2020 14:30;1;87;87;35.86;64.00
09/07/2020 15:00;1;90;90;35.52;55.00
09/07/2020 15:30;1;98;98;36.00;70.00
09/07/2020 16:00;1;89;89;33.75;49.00
09/07/2020 16:30;1;87;87;35.93;56.00
09/07/2020 17:00;1;92;92;34.55;52.00
09/07/2020 17:30;1;84;84;35.20;61.00
09/07/2020 18:00;1;48;48;36.96;56.00
09/07/2020 18:30;1;66;66;35.53;57.00
09/07/2020 19:00;1;51;51;37.35;56.00
09/07/2020 19:30;1;42;42;34.88;61.00
09/07/2020 20:00;1;38;38;36.45;54.00
09/07/2020 20:30;1;28;28;34.89;48.00
09/07/2020 21:00;1;26;26;36.12;59.00
09/07/2020 21:30;1;17;17;33.88;53.00
09/07/2020 22:00;1;9;9;36.44;45.00
09/07/2020 22:30;1;8;8;28.75;35.00
09/07/2020 23:00;1;8;8;41.12;53.00
09/07/2020 23:30;1;8;8;38.12;70.00
10/07/2020 00:00;1;3;3;35.33;42.00
10/07/2020 00:30;1;2;2;41.50;46.00
10/07/2020 01:00;1;3;3;34.00;39.00
10/07/2020 03:00;1;3;3;35.67;43.00
10/07/2020 03:30;1;1;1;45.00;45.00
10/07/2020 04:00;1;5;5;41.40;52.00
10/07/2020 04:30;1;8;8;33.50;62.00
10/07/2020 05:00;1;7;7;35.57;44.00
10/07/2020 05:30;1;31;31;35.61;46.00
10/07/2020 06:00;1;42;42;37.52;58.00
10/07/2020 06:30;1;100;100;36.96;60.00
10/07/2020 07:00;1;126;126;36.18;58.00
10/07/2020 07:30;1;101;101;37.32;60.00
10/07/2020 08:00;1;109;109;36.89;63.00
10/07/2020 08:30;1;91;91;33.57;53.00
10/07/2020 09:00;1;96;96;35.67;59.00
10/07/2020 09:30;1;106;106;35.64;66.00
10/07/2020 10:00;1;121;121;33.17;46.00
10/07/2020 10:30;1;101;101;34.63;71.00
10/07/2020 11:00;1;106;106;32.70;49.00
10/07/2020 11:30;1;104;104;34.90;53.00
10/07/2020 12:00;1;92;92;35.50;49.00
10/07/2020 12:30;1;91;91;34.74;49.00
10/07/2020 13:00;1;99;99;36.52;64.00
10/07/2020 13:30;1;98;98;35.20;50.00
10/07/2020 14:00;1;91;91;35.87;56.00
10/07/2020 14:30;1;105;105;38.35;62.00
10/07/2020 15:00;1;92;92;35.73;63.00
10/07/2020 15:30;1;92;92;35.83;53.00
10/07/2020 16:00;1;81;81;37.02;66.00
10/07/2020 16:30;1;79;79;34.18;56.00
10/07/2020 17:00;1;91;91;35.00;50.00
10/07/2020 17:30;1;81;81;34.19;47.00
10/07/2020 18:00;1;71;71;36.27;57.00
10/07/2020 18:30;1;67;67;35.39;56.00
10/07/2020 19:00;1;55;55;38.24;68.00
10/07/2020 19:30;1;48;48;36.19;55.00
10/07/2020 20:00;1;38;38;36.21;63.00
10/07/2020 20:30;1;34;34;36.62;61.00
10/07/2020 21:00;1;22;22;39.23;62.00
10/07/2020 21:30;1;28;28;36.43;55.00
10/07/2020 22:00;1;9;9;43.00;62.00
10/07/2020 22:30;1;8;8;32.75;41.00
10/07/2020 23:00;1;7;7;36.71;55.00
10/07/2020 23:30;1;7;7;33.71;44.00
11/07/2020 00:00;1;5;5;40.20;46.00
11/07/2020 00:30;1;5;5;38.00;48.00
11/07/2020 01:00;1;4;4;34.50;44.00
11/07/2020 01:30;1;6;6;35.00;47.00
11/07/2020 02:00;1;2;2;31.50;33.00
11/07/2020 03:00;1;7;7;41.14;58.00
11/07/2020 03:30;1;1;1;44.00;44.00
11/07/2020 04:00;1;3;3;29.33;40.00
11/07/2020 04:30;1;5;5;38.40;46.00
11/07/2020 05:00;1;2;2;37.00;41.00
11/07/2020 05:30;1;6;6;29.17;36.00
11/07/2020 06:00;1;1;1;40.00;40.00
11/07/2020 06:30;1;20;20;37.75;45.00
11/07/2020 07:00;1;15;15;34.60;51.00
11/07/2020 07:30;1;37;37;36.89;54.00
11/07/2020 08:00;1;24;24;37.75;56.00
11/07/2020 08:30;1;53;53;36.79;51.00
11/07/2020 09:00;1;77;77;35.55;52.00
11/07/2020 09:30;1;73;73;34.96;55.00
11/07/2020 10:00;1;92;92;33.91;59.00
11/07/2020 10:30;1;107;107;34.32;52.00
11/07/2020 11:00;1;133;133;33.93;50.00
11/07/2020 11:30;1;120;120;34.59;46.00
11/07/2020 12:00;1;87;87;35.30;49.00
11/07/2020 12:30;1;107;107;35.14;50.00
11/07/2020 13:00;1;109;109;34.92;55.00
11/07/2020 13:30;1;117;117;35.43;65.00
11/07/2020 14:00;1;83;83;35.89;56.00
11/07/2020 14:30;1;78;78;36.65;67.00
11/07/2020 15:00;1;79;79;35.87;53.00
11/07/2020 15:30;1;84;84;34.71;48.00
11/07/2020 16:00;1;87;87;37.26;53.00
11/07/2020 16:30;1;73;73;36.42;54.00
11/07/2020 17:00;1;59;59;33.46;47.00
11/07/2020 17:30;1;42;42;36.10;49.00
11/07/2020 18:00;1;65;65;36.08;61.00
11/07/2020 18:30;1;49;49;37.59;56.00
11/07/2020 19:00;1;50;50;37.26;52.00
11/07/2020 19:30;1;51;51;36.27;48.00
11/07/2020 20:00;1;29;29;37.45;78.00
11/07/2020 20:30;1;41;41;36.34;53.00
11/07/2020 21:00;1;29;29;35.93;44.00
11/07/2020 21:30;1;20;20;35.45;56.00
11/07/2020 22:00;1;16;16;39.94;71.00
11/07/2020 22:30;1;13;13;35.54;55.00
11/07/2020 23:00;1;14;14;29.50;39.00
11/07/2020 23:30;1;9;9;33.44;42.00
12/07/2020 00:00;1;7;7;40.57;50.00
12/07/2020 00:30;1;7;7;49.43;68.00
12/07/2020 01:00;1;5;5;45.00;54.00
12/07/2020 01:30;1;3;3;41.00;42.00
12/07/2020 02:00;1;1;1;29.00;29.00
12/07/2020 02:30;1;2;2;35.50;42.00
12/07/2020 03:00;1;2;2;44.00;47.00
12/07/2020 03:30;1;2;2;30.50;36.00
12/07/2020 04:00;1;1;1;38.00;38.00
12/07/2020 04:30;1;2;2;46.00;59.00
12/07/2020 05:00;1;1;1;32.00;32.00
12/07/2020 05:30;1;9;9;37.44;63.00
12/07/2020 06:00;1;3;3;43.00;43.00
12/07/2020 06:30;1;1;1;50.00;50.00
12/07/2020 07:00;1;6;6;36.50;44.00
12/07/2020 07:30;1;11;11;41.00;64.00
12/07/2020 08:00;1;8;8;33.75;69.00
12/07/2020 08:30;1;16;16;39.38;59.00
12/07/2020 09:00;1;23;23;38.39;65.00
12/07/2020 09:30;1;33;33;36.21;49.00
12/07/2020 10:00;1;19;19;34.89;51.00
12/07/2020 10:30;1;21;21;36.52;50.00
12/07/2020 11:00;1;23;23;37.26;52.00
12/07/2020 11:30;1;20;20;34.65;51.00
12/07/2020 12:00;1;19;19;33.42;47.00
12/07/2020 12:30;1;28;28;34.43;44.00
12/07/2020 13:00;1;40;40;35.98;53.00
12/07/2020 13:30;1;28;28;39.04;59.00
12/07/2020 14:00;1;22;22;36.45;54.00
12/07/2020 14:30;1;25;25;35.80;64.00
12/07/2020 15:00;1;30;30;34.87;57.00
12/07/2020 15:30;1;33;33;37.61;58.00
12/07/2020 16:00;1;36;36;39.81;67.00
12/07/2020 16:30;1;32;32;38.22;62.00
12/07/2020 17:00;1;30;30;37.07;78.00
12/07/2020 17:30;1;46;46;34.28;54.00
12/07/2020 18:00;1;32;32;38.75;77.00
12/07/2020 18:30;1;35;35;37.26;48.00
12/07/2020 19:00;1;36;36;35.86;64.00
12/07/2020 19:30;1;21;21;40.76;83.00
12/07/2020 20:00;1;27;27;36.04;48.00
12/07/2020 20:30;1;22;22;37.82;54.00
12/07/2020 21:00;1;16;16;41.56;57.00
12/07/2020 21:30;1;9;9;31.56;46.00
12/07/2020 22:00;1;13;13;35.00;47.00
12/07/2020 22:30;1;10;10;34.20;58.00
12/07/2020 23:00;1;11;11;37.64;57.00
12/07/2020 23:30;1;7;7;31.86;44.00
13/07/2020 00:00;1;4;4;36.50;44.00
13/07/2020 00:30;1;2;2;37.50;42.00
13/07/2020 01:00;1;3;3;33.67;45.00
13/07/2020 03:00;1;1;1;41.00;41.00
13/07/2020 03:30;1;1;1;26.00;26.00
13/07/2020 04:00;1;5;5;36.60;41.00
13/07/2020 04:30;1;3;3;46.33;48.00
13/07/2020 05:00;1;11;11;37.64;51.00
13/07/2020 05:30;1;31;31;37.61;58.00
13/07/2020 06:00;1;37;37;37.49;50.00
13/07/2020 06:30;1;106;106;38.59;59.00
13/07/2020 07:00;1;122;122;37.20;55.00
13/07/2020 07:30;1;115;115;36.03;65.00
13/07/2020 08:00;1;127;127;36.22;58.00
13/07/2020 08:30;1;110;110;35.91;59.00
13/07/2020 09:00;1;88;88;34.55;56.00
13/07/2020 09:30;1;94;94;34.07;53.00
13/07/2020 10:00;1;103;103;36.38;54.00
13/07/2020 10:30;1;99;99;34.47;55.00
13/07/2020 11:00;1;85;85;34.82;56.00
13/07/2020 11:30;1;92;92;34.20;50.00
13/07/2020 12:00;1;74;74;37.70;76.00
13/07/2020 12:30;1;74;74;35.43;54.00
13/07/2020 13:00;1;98;98;33.95;48.00
13/07/2020 13:30;1;80;80;34.11;51.00
13/07/2020 14:00;1;88;88;35.05;48.00
13/07/2020 14:30;1;89;89;35.57;54.00
13/07/2020 15:00;1;96;96;34.85;58.00
13/07/2020 15:30;1;95;95;36.37;71.00
13/07/2020 16:00;1;83;83;36.71;55.00
13/07/2020 16:30;1;97;97;35.73;51.00
13/07/2020 17:00;1;88;88;36.23;49.00
13/07/2020 17:30;1;69;69;36.64;53.00
13/07/2020 18:00;1;68;68;35.72;67.00
13/07/2020 18:30;1;61;61;36.77;57.00
13/07/2020 19:00;1;65;65;35.60;69.00
13/07/2020 19:30;1;29;29;34.97;56.00
13/07/2020 20:00;1;31;31;33.39;50.00
13/07/2020 20:30;1;27;27;37.48;49.00
13/07/2020 21:00;1;22;22;37.68;50.00
13/07/2020 21:30;1;19;19;35.63;48.00
13/07/2020 22:00;1;7;7;36.29;47.00
13/07/2020 22:30;1;8;8;43.50;81.00
13/07/2020 23:00;1;2;2;29.50;36.00
13/07/2020 23:30;1;4;4;29.50;37.00
14/07/2020 00:00;1;2;2;41.00;44.00
14/07/2020 00:30;1;1;1;58.00;58.00
14/07/2020 01:00;1;1;1;20.00;20.00
14/07/2020 02:00;1;1;1;38.00;38.00
14/07/2020 02:30;1;1;1;35.00;35.00
14/07/2020 03:30;1;3;3;43.33;51.00
14/07/2020 04:00;1;4;4;39.75;52.00
14/07/2020 04:30;1;6;6;29.17;37.00
14/07/2020 05:00;1;13;13;38.00;49.00
14/07/2020 05:30;1;28;28;38.50;50.00
14/07/2020 06:00;1;39;39;36.21;64.00
14/07/2020 06:30;1;112;112;37.40;54.00
14/07/2020 07:00;1;116;116;36.81;64.00
14/07/2020 07:30;1;103;103;37.27;58.00
14/07/2020 08:00;1;109;109;36.36;55.00
14/07/2020 08:30;1;121;121;35.79;60.00
14/07/2020 09:00;1;84;84;35.12;53.00
14/07/2020 09:30;1;103;103;34.32;62.00
14/07/2020 10:00;1;106;106;35.27;58.00
14/07/2020 10:30;1;92;92;34.14;55.00
14/07/2020 11:00;1;129;129;34.59;53.00
14/07/2020 11:30;1;112;112;34.54;55.00
14/07/2020 12:00;1;99;99;35.18;51.00
14/07/2020 12:30;1;94;94;36.13;61.00
14/07/2020 13:00;1;92;92;33.99;60.00
14/07/2020 13:30;1;82;82;33.35;52.00
14/07/2020 14:00;1;111;111;34.68;61.00
14/07/2020 14:30;1;89;89;35.15;66.00
14/07/2020 15:00;1;76;76;34.86;53.00
14/07/2020 15:30;1;84;84;36.51;82.00
14/07/2020 16:00;1;91;91;35.90;58.00
14/07/2020 16:30;1;105;105;35.48;64.00
14/07/2020 17:00;1;84;84;34.73;50.00
14/07/2020 17:30;1;81;81;36.80;52.00
14/07/2020 18:00;1;69;69;34.80;54.00
14/07/2020 18:30;1;69;69;37.17;60.00
14/07/2020 19:00;1;50;50;35.56;65.00
14/07/2020 19:30;1;42;42;36.10;60.00
14/07/2020 20:00;1;32;32;34.44;51.00
14/07/2020 20:30;1;38;38;35.76;60.00
14/07/2020 21:00;1;24;24;35.71;54.00
14/07/2020 21:30;1;23;23;37.65;57.00
14/07/2020 22:00;1;8;8;38.88;48.00
14/07/2020 22:30;1;8;8;35.38;52.00
14/07/2020 23:00;1;6;6;35.33;43.00
14/07/2020 23:30;1;5;5;29.40;43.00
15/07/2020 01:00;1;3;3;38.00;49.00
15/07/2020 01:30;1;2;2;23.50;26.00
15/07/2020 03:30;1;1;1;43.00;43.00
15/07/2020 04:00;1;2;2;38.50;44.00
15/07/2020 04:30;1;9;9;39.89;66.00
15/07/2020 05:00;1;8;8;36.38;47.00
15/07/2020 05:30;1;26;26;37.23;50.00
15/07/2020 06:00;1;48;48;36.50;51.00
15/07/2020 06:30;1;110;110;37.35;61.00
15/07/2020 07:00;1;116;116;35.74;48.00
15/07/2020 07:30;1;97;97;36.07;59.00
15/07/2020 08:00;1;107;107;35.81;61.00
15/07/2020 08:30;1;94;94;34.62;51.00
15/07/2020 09:00;1;113;113;34.27;67.00
15/07/2020 09:30;1;89;89;33.57;49.00
15/07/2020 10:00;1;90;90;34.62;61.00
15/07/2020 10:30;1;117;117;33.85;56.00
15/07/2020 11:00;1;116;116;32.30;60.00
15/07/2020 11:30;1;90;90;33.80;53.00
15/07/2020 12:00;1;98;98;33.71;53.00
15/07/2020 12:30;1;84;84;36.60;60.00
15/07/2020 13:00;1;90;90;37.07;63.00
15/07/2020 13:30;1;103;103;34.53;47.00
15/07/2020 14:00;1;121;121;34.55;58.00
15/07/2020 14:30;1;93;93;34.67;52.00
15/07/2020 15:00;1;103;103;32.87;54.00
15/07/2020 15:30;1;99;99;33.41;49.00
15/07/2020 16:00;1;103;103;35.52;58.00
15/07/2020 16:30;1;114;114;34.33;55.00
15/07/2020 17:00;1;101;101;35.60;52.00
15/07/2020 17:30;1;92;92;35.87;74.00
15/07/2020 18:00;1;68;68;35.46;58.00
15/07/2020 18:30;1;80;80;35.92;60.00
15/07/2020 19:00;1;56;56;35.82;51.00
15/07/2020 19:30;1;45;45;37.31;57.00
15/07/2020 20:00;1;35;35;38.46;58.00
15/07/2020 20:30;1;31;31;36.13;49.00
15/07/2020 21:00;1;19;19;38.26;64.00
15/07/2020 21:30;1;18;18;43.00;99.00
15/07/2020 22:00;1;10;10;38.80;53.00
15/07/2020 22:30;1;11;11;31.73;49.00
15/07/2020 23:00;1;7;7;33.43;41.00
15/07/2020 23:30;1;4;4;32.00;49.00
16/07/2020 00:00;1;5;5;38.60;71.00
16/07/2020 00:30;1;1;1;35.00;35.00
16/07/2020 02:00;1;1;1;31.00;31.00
16/07/2020 04:00;1;2;2;38.50;42.00
16/07/2020 04:30;1;5;5;34.60;38.00
16/07/2020 05:00;1;8;8;39.88;61.00
16/07/2020 05:30;1;38;38;37.66;58.00
16/07/2020 06:00;1;42;42;34.38;47.00
16/07/2020 06:30;1;95;95;36.46;53.00
16/07/2020 07:00;1;120;120;34.38;55.00
16/07/2020 07:30;1;98;98;36.63;54.00
16/07/2020 08:00;1;118;118;35.58;58.00
16/07/2020 08:30;1;114;114;34.00;55.00
16/07/2020 09:00;1;98;98;32.62;52.00
16/07/2020 09:30;1;88;88;35.10;55.00
16/07/2020 10:00;1;104;104;34.31;64.00
16/07/2020 10:30;1;99;99;34.07;61.00
16/07/2020 11:00;1;114;114;33.91;56.00
16/07/2020 11:30;1;102;102;34.05;51.00
16/07/2020 12:00;1;87;87;35.44;50.00
16/07/2020 12:30;1;87;87;36.24;56.00
16/07/2020 13:00;1;87;87;34.17;52.00
16/07/2020 13:30;1;109;109;36.65;57.00
16/07/2020 14:00;1;109;109;34.12;51.00
16/07/2020 14:30;1;102;102;37.20;67.00
16/07/2020 15:00;1;87;87;35.26;50.00
16/07/2020 15:30;1;79;79;35.13;58.00
16/07/2020 16:00;1;96;96;35.71;69.00
16/07/2020 16:30;1;84;84;35.12;52.00
16/07/2020 17:00;1;80;80;35.25;45.00
16/07/2020 17:30;1;83;83;36.06;59.00
16/07/2020 18:00;1;67;67;35.57;55.00
16/07/2020 18:30;1;81;81;35.12;51.00
16/07/2020 19:00;1;46;46;37.74;53.00
16/07/2020 19:30;1;46;46;34.57;48.00
16/07/2020 20:00;1;25;25;37.32;56.00
16/07/2020 20:30;1;35;35;36.94;57.00
16/07/2020 21:00;1;9;9;38.56;49.00
16/07/2020 21:30;1;19;19;32.74;46.00
16/07/2020 22:00;1;15;15;38.73;48.00
16/07/2020 22:30;1;14;14;41.71;82.00
16/07/2020 23:00;1;3;3;37.67;43.00
16/07/2020 23:30;1;5;5;31.80;55.00
17/07/2020 00:00;1;6;6;37.83;49.00
17/07/2020 00:30;1;1;1;55.00;55.00
17/07/2020 01:00;1;2;2;48.50;53.00
17/07/2020 01:30;1;1;1;39.00;39.00
17/07/2020 02:00;1;1;1;40.00;40.00
17/07/2020 02:30;1;1;1;45.00;45.00
17/07/2020 03:00;1;1;1;43.00;43.00
17/07/2020 04:00;1;1;1;41.00;41.00
17/07/2020 04:30;1;4;4;43.50;52.00
17/07/2020 05:00;1;7;7;35.86;46.00
17/07/2020 05:30;1;27;27;35.19;44.00
17/07/2020 06:00;1;41;41;36.61;53.00
17/07/2020 06:30;1;109;109;36.97;66.00
17/07/2020 07:00;1;118;118;36.42;52.00
17/07/2020 07:30;1;95;95;37.03;58.00
17/07/2020 08:00;1;103;103;36.27;53.00
17/07/2020 08:30;1;99;99;35.85;63.00
17/07/2020 09:00;1;98;98;34.69;53.00
17/07/2020 09:30;1;88;88;35.70;62.00
17/07/2020 10:00;1;106;106;33.93;57.00
17/07/2020 10:30;1;104;104;34.42;49.00
17/07/2020 11:00;1;116;116;33.61;51.00
17/07/2020 11:30;1;103;103;33.98;56.00
17/07/2020 12:00;1;95;95;34.79;56.00
17/07/2020 12:30;1;89;89;37.04;53.00
17/07/2020 13:00;1;111;111;33.43;54.00
17/07/2020 13:30;1;97;97;34.55;54.00
17/07/2020 14:00;1;99;99;35.31;61.00
17/07/2020 14:30;1;97;97;36.25;51.00
17/07/2020 15:00;1;102;102;35.48;54.00
17/07/2020 15:30;1;98;98;37.13;50.00
17/07/2020 16:00;1;101;101;35.72;51.00
17/07/2020 16:30;1;92;92;35.57;64.00
17/07/2020 17:00;1;83;83;34.70;54.00
17/07/2020 17:30;1;83;83;37.73;52.00
17/07/2020 18:00;1;57;57;37.21;60.00
17/07/2020 18:30;1;71;71;36.37;59.00
17/07/2020 19:00;1;67;67;35.79;52.00
17/07/2020 19:30;1;46;46;37.43;81.00
17/07/2020 20:00;1;23;23;39.70;55.00
17/07/2020 20:30;1;31;31;36.19;46.00
17/07/2020 21:00;1;29;29;37.72;60.00
17/07/2020 21:30;1;18;18;34.17;47.00
17/07/2020 22:00;1;14;14;35.86;51.00
17/07/2020 22:30;1;13;13;33.31;56.00
17/07/2020 23:00;1;10;10;38.90;59.00
17/07/2020 23:30;1;9;9;33.11;50.00
18/07/2020 00:00;1;3;3;41.67;52.00
18/07/2020 00:30;1;6;6;39.33;51.00
18/07/2020 01:00;1;5;5;35.80;43.00
18/07/2020 01:30;1;1;1;65.00;65.00
18/07/2020 02:00;1;5;5;40.00;45.00
18/07/2020 02:30;1;2;2;45.50;48.00
18/07/2020 03:00;1;5;5;42.40;49.00
18/07/2020 03:30;1;3;3;40.67;43.00
18/07/2020 04:00;1;3;3;43.33;50.00
18/07/2020 04:30;1;6;6;42.67;63.00
18/07/2020 05:00;1;2;2;37.50;43.00
18/07/2020 05:30;1;8;8;39.25;46.00
18/07/2020 06:00;1;8;8;41.00;52.00
18/07/2020 06:30;1;20;20;36.80;48.00
18/07/2020 07:00;1;31;31;37.58;55.00
18/07/2020 07:30;1;38;38;33.76;47.00
18/07/2020 08:00;1;38;38;37.45;54.00
18/07/2020 08:30;1;63;63;38.62;60.00
18/07/2020 09:00;1;70;70;35.64;53.00
18/07/2020 09:30;1;83;83;35.48;52.00
18/07/2020 10:00;1;89;89;34.57;68.00
18/07/2020 10:30;1;98;98;35.13;54.00
18/07/2020 11:00;1;85;85;35.81;54.00
18/07/2020 11:30;1;100;100;33.47;52.00
18/07/2020 12:00;1;91;91;33.21;48.00
18/07/2020 12:30;1;92;92;36.61;64.00
18/07/2020 13:00;1;101;101;34.28;49.00
18/07/2020 13:30;1;95;95;37.49;55.00
18/07/2020 14:00;1;98;98;36.04;64.00
18/07/2020 14:30;1;85;85;37.02;69.00
18/07/2020 15:00;1;75;75;35.21;69.00
18/07/2020 15:30;1;73;73;36.01;54.00
18/07/2020 16:00;1;60;60;36.28;55.00
18/07/2020 16:30;1;59;59;37.41;62.00
18/07/2020 17:00;1;73;73;36.26;77.00
18/07/2020 17:30;1;77;77;35.73;52.00
18/07/2020 18:00;1;67;67;36.10;70.00
18/07/2020 18:30;1;52;52;36.17;49.00
18/07/2020 19:00;1;53;53;37.77;59.00
18/07/2020 19:30;1;52;52;36.79;67.00
18/07/2020 20:00;1;40;40;35.62;58.00
18/07/2020 20:30;1;44;44;36.05;48.00
18/07/2020 21:00;1;35;35;38.23;52.00
18/07/2020 21:30;1;32;32;38.06;58.00
18/07/2020 22:00;1;6;6;39.33;45.00
18/07/2020 22:30;1;13;13;38.00;50.00
18/07/2020 23:00;1;11;11;34.45;46.00
18/07/2020 23:30;1;14;14;31.43;59.00
19/07/2020 00:00;1;11;11;33.09;50.00
19/07/2020 00:30;1;6;6;38.17;41.00
19/07/2020 01:00;1;8;8;35.88;46.00
19/07/2020 01:30;1;5;5;45.20;57.00
19/07/2020 02:00;1;1;1;53.00;53.00
19/07/2020 02:30;1;4;4;39.50;44.00
19/07/2020 03:00;1;4;4;35.00;65.00
19/07/2020 03:30;1;1;1;51.00;51.00
19/07/2020 04:30;1;1;1;34.00;34.00
19/07/2020 05:00;1;1;1;26.00;26.00
19/07/2020 05:30;1;7;7;40.14;47.00
19/07/2020 06:00;1;1;1;49.00;49.00
19/07/2020 06:30;1;2;2;32.50;35.00
19/07/2020 07:00;1;3;3;38.00;48.00
19/07/2020 07:30;1;8;8;37.62;53.00
19/07/2020 08:00;1;9;9;37.89;52.00
19/07/2020 08:30;1;10;10;33.60;45.00
19/07/2020 09:00;1;18;18;33.72;52.00
19/07/2020 09:30;1;25;25;33.20;53.00
19/07/2020 10:00;1;20;20;35.30;50.00
19/07/2020 10:30;1;28;28;36.29;55.00
19/07/2020 11:00;1;18;18;36.83;51.00
19/07/2020 11:30;1;29;29;36.97;50.00
19/07/2020 12:00;1;17;17;36.06;52.00
19/07/2020 12:30;1;21;21;35.67;48.00
19/07/2020 13:00;1;23;23;34.65;57.00
19/07/2020 13:30;1;29;29;35.93;47.00
19/07/2020 14:00;1;34;34;37.53;47.00
19/07/2020 14:30;1;23;23;34.83;52.00
19/07/2020 15:00;1;27;27;36.30;56.00
19/07/2020 15:30;1;24;24;33.33;52.00
19/07/2020 16:00;1;29;29;34.45;48.00
19/07/2020 16:30;1;39;39;34.67;46.00
19/07/2020 17:00;1;33;33;34.94;49.00
19/07/2020 17:30;1;25;25;34.36;51.00
19/07/2020 18:00;1;37;37;35.70;50.00
19/07/2020 18:30;1;25;25;37.04;51.00
19/07/2020 19:00;1;30;30;35.67;57.00
19/07/2020 19:30;1;31;31;38.35;55.00
19/07/2020 20:00;1;28;28;34.89;49.00
19/07/2020 20:30;1;13;13;32.08;45.00
19/07/2020 21:00;1;12;12;39.50;49.00
19/07/2020 21:30;1;13;13;34.62;44.00
19/07/2020 22:00;1;10;10;35.00;42.00
19/07/2020 22:30;1;9;9;35.33;44.00
19/07/2020 23:00;1;13;13;34.38;50.00
19/07/2020 23:30;1;8;8;38.75;64.00
20/07/2020 00:00;1;3;3;30.00;38.00
20/07/2020 00:30;1;2;2;45.00;48.00
20/07/2020 01:00;1;4;4;39.00;43.00
20/07/2020 01:30;1;3;3;42.33;48.00
20/07/2020 02:00;1;1;1;28.00;28.00
20/07/2020 03:00;1;4;4;35.50;41.00
20/07/2020 03:30;1;2;2;31.50;38.00
20/07/2020 04:00;1;1;1;46.00;46.00
20/07/2020 04:30;1;3;3;39.67;51.00
20/07/2020 05:00;1;12;12;37.58;42.00
20/07/2020 05:30;1;23;23;37.57;50.00
20/07/2020 06:00;1;42;42;38.14;52.00
20/07/2020 06:30;1;111;111;36.88;72.00
20/07/2020 07:00;1;105;105;35.99;54.00
20/07/2020 07:30;1;108;108;36.49;54.00
20/07/2020 08:00;1;109;109;36.22;64.00
20/07/2020 08:30;1;132;132;37.33;56.00
20/07/2020 09:00;1;94;94;36.67;57.00
20/07/2020 09:30;1;96;96;35.49;57.00
20/07/2020 10:00;1;99;99;36.00;53.00
20/07/2020 10:30;1;98;98;33.48;61.00
20/07/2020 11:00;1;95;95;33.51;49.00
20/07/2020 11:30;1;97;97;35.67;49.00
20/07/2020 12:00;1;90;90;34.76;49.00
20/07/2020 12:30;1;90;90;37.31;59.00
20/07/2020 13:00;1;95;95;35.97;52.00
20/07/2020 13:30;1;94;94;35.73;63.00
20/07/2020 14:00;1;90;90;35.31;60.00
20/07/2020 14:30;1;100;100;35.01;54.00
20/07/2020 15:00;1;87;87;34.87;60.00
20/07/2020 15:30;1;87;87;34.45;54.00
20/07/2020 16:00;1;83;83;37.98;59.00